• In Deutschland
  • Länderverzeichnis
  • Für 7 Tage
  • Wassertemperatur
  • Satellitenkarten
  • Wetterkarte
  • Widgets
  • user-avatar
    Anmelden

    Stündliche Wetter Yopal

    Heute, 16 Juli, Montag

    Zeit Temperatur Niederschläge Wind Luftdruck Luftfeuchtigkeit
    00:00 +24°C° 0,4 mm 1 m/S 732 mmHg 88%
    01:00 +23°C° 0,4 mm 1 m/S 732 mmHg 87%
    02:00 +23°C° 0 mm 1 m/S 732 mmHg 85%
    03:00 +23°C° 0 mm 1 m/S 732 mmHg 83%
    04:00 +23°C° 0 mm 1 m/S 731 mmHg 82%
    05:00 +24°C° 0 mm 1 m/S 732 mmHg 80%
    06:00 +24°C° 0 mm 1 m/S 732 mmHg 78%
    07:00 +25°C° 0 mm 1 m/S 732 mmHg 76%
    08:00 +27°C° 0 mm 1 m/S 733 mmHg 70%
    09:00 +29°C° 0 mm 1 m/S 733 mmHg 65%
    10:00 +31°C° 0 mm 2 m/S 733 mmHg 59%
    11:00 +31°C° 0,1 mm 2 m/S 732 mmHg 57%
    12:00 +32°C° 0,1 mm 2 m/S 732 mmHg 56%
    13:00 +34°C° 0,1 mm 2 m/S 732 mmHg 54%
    14:00 +32°C° 0,2 mm 2 m/S 731 mmHg 58%
    15:00 +32°C° 0,2 mm 2 m/S 730 mmHg 62%
    16:00 +31°C° 0,2 mm 2 m/S 730 mmHg 66%
    17:00 +29°C° 0,6 mm 1 m/S 730 mmHg 75%
    18:00 +27°C° 0,6 mm 1 m/S 730 mmHg 83%
    19:00 +25°C° 0,6 mm 1 m/S 731 mmHg 92%
    20:00 +25°C° 0,9 mm 1 m/S 731 mmHg 92%
    21:00 +25°C° 0,9 mm 1 m/S 732 mmHg 92%
    22:00 +25°C° 0,9 mm 1 m/S 733 mmHg 92%
    23:00 +24°C° 1,1 mm 1 m/S 733 mmHg 91%

    Morgen, 17 Juli, Dienstag

    Zeit Temperatur Niederschläge Wind Luftdruck Luftfeuchtigkeit
    00:00 +24°C° 1,1 mm 1 m/S 732 mmHg 90%
    01:00 +24°C° 1,1 mm 1 m/S 732 mmHg 89%
    02:00 +24°C° 0,9 mm 1 m/S 732 mmHg 88%
    03:00 +24°C° 0,9 mm 1 m/S 732 mmHg 88%
    04:00 +24°C° 0,9 mm 1 m/S 731 mmHg 87%
    05:00 +24°C° 0,4 mm 1 m/S 732 mmHg 85%
    06:00 +24°C° 0,4 mm 1 m/S 732 mmHg 84%
    07:00 +25°C° 0,4 mm 1 m/S 733 mmHg 83%
    08:00 +25°C° 0,3 mm 1 m/S 733 mmHg 82%
    09:00 +25°C° 0,3 mm 1 m/S 733 mmHg 81%
    10:00 +26°C° 0,3 mm 1 m/S 734 mmHg 80%
    11:00 +27°C° 0,1 mm 1 m/S 733 mmHg 78%
    12:00 +27°C° 0,1 mm 1 m/S 733 mmHg 77%
    13:00 +28°C° 0,1 mm 1 m/S 732 mmHg 75%
    14:00 +28°C° 0 mm 1 m/S 731 mmHg 74%
    15:00 +29°C° 0 mm 1 m/S 731 mmHg 73%
    16:00 +29°C° 0 mm 1 m/S 730 mmHg 72%
    17:00 +27°C° 0 mm 1 m/S 730 mmHg 78%
    18:00 +26°C° 0 mm 1 m/S 730 mmHg 85%
    19:00 +23°C° 0 mm 0 m/S 731 mmHg 91%
    20:00 +23°C° 0,2 mm 0 m/S 731 mmHg 90%
    21:00 +25°C° 0,2 mm 1 m/S 732 mmHg 88%
    22:00 +25°C° 0,2 mm 1 m/S 732 mmHg 87%
    23:00 +25°C° 0,5 mm 1 m/S 732 mmHg 86%

    übermorgen, 18 Juli, Mittwoch

    Zeit Temperatur Niederschläge Wind Luftdruck Luftfeuchtigkeit
    00:00 +25°C° 0,5 mm 1 m/S 732 mmHg 85%
    01:00 +23°C° 0,5 mm 0 m/S 731 mmHg 84%
    02:00 +22°C° 0,4 mm 0 m/S 731 mmHg 84%
    03:00 +22°C° 0,4 mm 0 m/S 731 mmHg 85%
    04:00 +22°C° 0,4 mm 0 m/S 731 mmHg 86%
    05:00 +22°C° 0,3 mm 0 m/S 731 mmHg 85%
    06:00 +22°C° 0,3 mm 0 m/S 731 mmHg 85%
    07:00 +23°C° 0,3 mm 0 m/S 732 mmHg 84%
    08:00 +23°C° 0,3 mm 0 m/S 732 mmHg 83%
    09:00 +26°C° 0,3 mm 1 m/S 732 mmHg 81%
    10:00 +26°C° 0,3 mm 1 m/S 732 mmHg 80%
    11:00 +27°C° 0,2 mm 1 m/S 732 mmHg 80%
    12:00 +27°C° 0,2 mm 1 m/S 731 mmHg 80%
    13:00 +27°C° 0,2 mm 1 m/S 731 mmHg 80%
    14:00 +26°C° 0,2 mm 1 m/S 730 mmHg 81%
    15:00 +26°C° 0,2 mm 1 m/S 729 mmHg 82%
    16:00 +26°C° 0,2 mm 1 m/S 729 mmHg 83%
    17:00 +25°C° 0,1 mm 1 m/S 729 mmHg 84%
    18:00 +23°C° 0,1 mm 0 m/S 729 mmHg 85%
    19:00 +23°C° 0,1 mm 0 m/S 730 mmHg 86%
    20:00 +22°C° 0,1 mm 0 m/S 730 mmHg 86%
    21:00 +22°C° 0,1 mm 0 m/S 731 mmHg 86%
    22:00 +22°C° 0,1 mm 0 m/S 731 mmHg 87%
    23:00 +22°C° 0,3 mm 0 m/S 731 mmHg 87%

    19 Juli, Donnerstag

    Zeit Temperatur Niederschläge Wind Luftdruck Luftfeuchtigkeit
    00:00 +24°C° 0,3 mm 1 m/S 731 mmHg 87%
    01:00 +24°C° 0,3 mm 1 m/S 730 mmHg 87%
    02:00 +24°C° 0,5 mm 1 m/S 730 mmHg 88%
    03:00 +23°C° 0,5 mm 1 m/S 730 mmHg 89%
    04:00 +23°C° 0,5 mm 1 m/S 730 mmHg 89%
    05:00 +24°C° 0,4 mm 1 m/S 730 mmHg 87%
    06:00 +22°C° 0,4 mm 0 m/S 731 mmHg 86%
    07:00 +23°C° 0,4 mm 0 m/S 731 mmHg 84%
    08:00 +23°C° 0,3 mm 0 m/S 732 mmHg 83%
    09:00 +26°C° 0,3 mm 1 m/S 732 mmHg 82%
    10:00 +27°C° 0,3 mm 1 m/S 732 mmHg 81%
    11:00 +27°C° 0,3 mm 1 m/S 732 mmHg 78%
    12:00 +28°C° 0,3 mm 1 m/S 731 mmHg 76%
    13:00 +29°C° 0,3 mm 1 m/S 731 mmHg 73%
    14:00 +28°C° 0,2 mm 2 m/S 730 mmHg 75%
    15:00 +28°C° 0,2 mm 2 m/S 730 mmHg 77%
    16:00 +27°C° 0,2 mm 2 m/S 729 mmHg 80%
    17:00 +26°C° 0,2 mm 2 m/S 730 mmHg 84%
    18:00 +25°C° 0,2 mm 1 m/S 730 mmHg 88%
    19:00 +24°C° 0,2 mm 1 m/S 730 mmHg 92%
    20:00 +24°C° 0,1 mm 1 m/S 731 mmHg 91%
    21:00 +24°C° 0,1 mm 1 m/S 731 mmHg 89%
    22:00 +24°C° 0,1 mm 1 m/S 732 mmHg 88%
    23:00 +24°C° 0,3 mm 1 m/S 731 mmHg 87%

    20 Juli, Freitag

    Zeit Temperatur Niederschläge Wind Luftdruck Luftfeuchtigkeit
    00:00 +24°C° 0,3 mm 1 m/S 731 mmHg 87%
    01:00 +24°C° 0,3 mm 1 m/S 731 mmHg 87%
    02:00 +23°C° 0,2 mm 1 m/S 731 mmHg 86%
    03:00 +23°C° 0,2 mm 1 m/S 731 mmHg 86%
    04:00 +23°C° 0,2 mm 1 m/S 731 mmHg 85%
    05:00 +24°C° 0,1 mm 1 m/S 731 mmHg 84%
    06:00 +24°C° 0,1 mm 1 m/S 732 mmHg 82%
    07:00 +23°C° 0,1 mm 0 m/S 732 mmHg 81%
    08:00 +26°C° 0,1 mm 1 m/S 732 mmHg 78%
    09:00 +27°C° 0,1 mm 1 m/S 733 mmHg 75%
    10:00 +28°C° 0,1 mm 1 m/S 733 mmHg 72%
    11:00 +29°C° 0,1 mm 2 m/S 732 mmHg 69%
    12:00 +29°C° 0,1 mm 2 m/S 732 mmHg 67%
    13:00 +30°C° 0,1 mm 2 m/S 731 mmHg 64%
    14:00 +30°C° 0,1 mm 2 m/S 731 mmHg 65%
    15:00 +30°C° 0,1 mm 2 m/S 730 mmHg 65%
    16:00 +31°C° 0,1 mm 2 m/S 729 mmHg 66%
    17:00 +29°C° 0,3 mm 1 m/S 730 mmHg 74%
    18:00 +27°C° 0,3 mm 1 m/S 730 mmHg 82%
    19:00 +25°C° 0,3 mm 1 m/S 730 mmHg 90%
    20:00 +25°C° 0,1 mm 1 m/S 731 mmHg 89%
    21:00 +25°C° 0,1 mm 1 m/S 731 mmHg 88%
    22:00 +25°C° 0,1 mm 1 m/S 732 mmHg 87%
    23:00 +24°C° 0,1 mm 1 m/S 731 mmHg 86%

    21 Juli, Samstag

    Zeit Temperatur Niederschläge Wind Luftdruck Luftfeuchtigkeit
    00:00 +24°C° 0,1 mm 1 m/S 731 mmHg 85%
    01:00 +24°C° 0,1 mm 1 m/S 731 mmHg 84%
    02:00 +24°C° 0,1 mm 1 m/S 731 mmHg 84%
    03:00 +24°C° 0,1 mm 1 m/S 731 mmHg 83%
    04:00 +24°C° 0,1 mm 1 m/S 731 mmHg 83%
    05:00 +24°C° 0,3 mm 1 m/S 731 mmHg 83%
    06:00 +24°C° 0,3 mm 1 m/S 731 mmHg 82%
    07:00 +25°C° 0,3 mm 1 m/S 732 mmHg 82%
    08:00 +25°C° 0,5 mm 1 m/S 732 mmHg 84%
    09:00 +25°C° 0,5 mm 1 m/S 732 mmHg 85%
    10:00 +25°C° 0,5 mm 1 m/S 732 mmHg 87%
    11:00 +27°C° 0,3 mm 2 m/S 732 mmHg 80%
    12:00 +29°C° 0,3 mm 2 m/S 731 mmHg 73%
    13:00 +31°C° 0,3 mm 3 m/S 731 mmHg 66%
    14:00 +31°C° 0,1 mm 3 m/S 730 mmHg 67%
    15:00 +30°C° 0,1 mm 3 m/S 729 mmHg 69%
    16:00 +30°C° 0,1 mm 3 m/S 729 mmHg 71%
    17:00 +29°C° 0,1 mm 2 m/S 729 mmHg 78%
    18:00 +27°C° 0,1 mm 2 m/S 729 mmHg 85%
    19:00 +25°C° 0,1 mm 1 m/S 730 mmHg 92%
    20:00 +25°C° 0,1 mm 1 m/S 730 mmHg 90%
    21:00 +25°C° 0,1 mm 1 m/S 731 mmHg 89%
    22:00 +25°C° 0,1 mm 1 m/S 731 mmHg 88%
    23:00 +25°C° 0,2 mm 1 m/S 731 mmHg 86%
    Mehr zeigen